VE2YMM-13 Weather Reports


time (UTC)temp
C
wind
direction
speed
KPH
gust
KPH
rain 1hr
cm
rain 24hr
cm
rain mn
cm
humidity
%
barometer
mb
20260504070116 8 248 8.0 16.1 0.00 0.00 0.00 67 1005.9
20260504060156 9 248 8.0 14.5 0.00 0.00 0.00 63 1006.0
20260504050617 8 248 8.0 12.9 0.00 0.00 0.00 58 1006.3
20260504050138 8 203 8.0 12.9 0.00 0.00 0.00 58 1006.3
20260504045618 8 248 6.4 11.3 0.00 0.00 0.00 58 1006.3
20260504045117 8 248 4.8 12.9 0.00 0.00 0.00 57 1006.4
20260504044638 8 225 4.8 6.4 0.00 0.00 0.00 57 1006.4
20260504044117 8 203 3.2 3.2 0.00 0.00 0.00 57 1006.4
20260504043617 8 203 3.2 6.4 0.00 0.00 0.00 57 1006.4
20260504043117 8 225 4.8 6.4 0.00 0.00 0.00 57 1006.6
20260504042618 8 225 4.8 6.4 0.00 0.00 0.00 58 1006.6
20260504042117 8 248 3.2 4.8 0.00 0.00 0.00 58 1006.7
20260504041618 8 225 3.2 4.8 0.00 0.00 0.00 58 1006.6
20260504041117 8 270 1.6 3.2 0.00 0.00 0.00 57 1006.6
20260504040617 8 225 4.8 4.8 0.00 0.00 0.00 57 1006.6
20260504040117 8 225 3.2 4.8 0.00 0.00 0.00 57 1006.5
20260504035617 8 225 3.2 6.4 0.00 0.00 0.00 57 1006.5
20260504035118 8 248 1.6 4.8 0.00 0.00 0.00 56 1006.5
20260504034617 8 248 3.2 4.8 0.00 0.00 0.00 56 1006.5
20260504034158 8 225 4.8 8.0 0.00 0.00 0.00 56 1006.5
20260504033617 8 180 1.6 3.2 0.00 0.00 0.00 54 1006.5
20260504033117 8 225 1.6 4.8 0.00 0.00 0.00 54 1006.5
20260504032618 9 225 4.8 8.0 0.00 0.00 0.00 54 1006.6
20260504032118 9 203 3.2 6.4 0.00 0.00 0.00 53 1006.6
20260504031658 9 248 4.8 9.7 0.00 0.00 0.00 53 1006.6
20260504031118 9 225 4.8 6.4 0.00 0.00 0.00 52 1006.7
20260504030638 9 248 3.2 6.4 0.00 0.00 0.00 51 1006.7
20260504030117 9 180 6.4 9.7 0.00 0.00 0.00 51 1006.7
20260504025618 9 225 3.2 11.3 0.00 0.00 0.00 51 1006.7
20260504025117 9 203 3.2 4.8 0.00 0.00 0.00 51 1006.8
20260504024618 10 225 4.8 8.0 0.00 0.00 0.00 51 1006.8
20260504024117 10 180 3.2 9.7 0.00 0.00 0.00 50 1006.8
20260504023617 10 270 3.2 4.8 0.00 0.00 0.00 50 1006.8
20260504023117 10 225 4.8 8.0 0.00 0.00 0.00 49 1006.9
20260504022617 10 248 3.2 6.4 0.00 0.00 0.00 48 1006.9
20260504022117 10 248 4.8 8.0 0.00 0.00 0.00 48 1006.9
20260504021618 10 270 3.2 6.4 0.00 0.00 0.00 47 1007.0
20260504021137 10 248 4.8 8.0 0.00 0.00 0.00 47 1007.0
20260504020617 10 225 6.4 8.0 0.00 0.00 0.00 47 1007.1
20260504020118 10 248 8.0 14.5 0.00 0.00 0.00 46 1007.2
20260504015617 10 248 3.2 6.4 0.00 0.00 0.00 46 1007.2
20260504015118 10 270 4.8 8.0 0.00 0.00 0.00 46 1007.2
20260504014617 10 225 8.0 12.9 0.00 0.00 0.00 46 1007.3
20260504014157 10 248 11.3 16.1 0.00 0.00 0.00 46 1007.3
20260504013617 11 248 6.4 12.9 0.00 0.00 0.00 46 1007.3
20260504013117 11 225 12.9 25.7 0.00 0.00 0.00 45 1007.3
20260504012617 11 225 6.4 9.7 0.00 0.00 0.00 45 1007.4
20260504012117 11 225 6.4 11.3 0.00 0.00 0.00 45 1007.3
20260504011637 11 225 11.3 24.1 0.00 0.00 0.00 45 1007.3
20260504011117 11 248 4.8 4.8 0.00 0.00 0.00 44 1007.3
20260504010617 11 225 6.4 9.7 0.00 0.00 0.00 44 1007.3
20260504010117 11 248 6.4 8.0 0.00 0.00 0.00 43 1007.3
20260504005617 11 248 3.2 6.4 0.00 0.00 0.00 43 1007.3
20260504005117 11 203 3.2 4.8 0.00 0.00 0.00 43 1007.2
20260504004617 11 225 6.4 11.3 0.00 0.00 0.00 42 1007.1
20260504004117 11 270 6.4 11.3 0.00 0.00 0.00 42 1007.1
20260504003617 11 203 4.8 9.7 0.00 0.00 0.00 42 1007.1
20260504003117 11 225 6.4 11.3 0.00 0.00 0.00 42 1007.1
20260504002617 11 248 6.4 12.9 0.00 0.00 0.00 42 1007.0
20260504002117 11 225 1.6 3.2 0.00 0.00 0.00 42 1007.1
20260504001638 11 225 9.7 16.1 0.00 0.00 0.00 41 1007.0
20260504001117 11 225 4.8 6.4 0.00 0.00 0.00 41 1007.0
20260504000617 11 270 6.4 12.9 0.00 0.00 0.00 40 1007.0
20260504000117 12 270 4.8 6.4 0.00 0.00 0.00 39 1007.0
20260503235617 12 225 9.7 22.5 0.00 0.00 0.00 38 1007.0
20260503235117 12 225 8.0 12.9 0.00 0.00 0.00 38 1006.9
20260503234637 12 248 6.4 9.7 0.00 0.00 0.00 38 1006.9
20260503234137 12 248 3.2 4.8 0.00 0.00 0.00 38 1006.8
20260503233617 12 225 3.2 4.8 0.00 0.00 0.00 39 1006.8
20260503233117 12 248 4.8 8.0 0.00 0.00 0.00 38 1006.8
20260503232637 12 248 6.4 14.5 0.00 0.00 0.00 38 1006.8
20260503232117 12 270 3.2 4.8 0.00 0.00 0.00 38 1006.8
20260503231637 12 270 8.0 12.9 0.00 0.00 0.00 36 1006.8
20260503231137 12 248 8.0 16.1 0.00 0.00 0.00 36 1006.8
20260503230617 12 248 8.0 12.9 0.00 0.00 0.00 36 1006.8
20260503230117 12 270 9.7 12.9 0.00 0.00 0.00 37 1006.8
20260503225617 12 270 4.8 8.0 0.00 0.00 0.00 36 1006.8
20260503225116 12 248 12.9 20.9 0.00 0.00 0.00 35 1006.8
20260503224617 12 270 6.4 9.7 0.00 0.00 0.00 35 1006.8
20260503224117 12 248 9.7 12.9 0.00 0.00 0.00 35 1006.8
20260503223617 13 248 8.0 14.5 0.00 0.00 0.00 34 1006.9
20260503223117 13 270 6.4 12.9 0.00 0.00 0.00 33 1006.8
20260503222617 13 270 4.8 9.7 0.00 0.00 0.00 36 1006.8
20260503222117 13 270 6.4 14.5 0.00 0.00 0.00 34 1006.8
20260503221616 13 248 6.4 11.3 0.00 0.00 0.00 34 1006.8
20260503221117 13 293 6.4 14.5 0.00 0.00 0.00 34 1006.8
20260503220617 13 270 6.4 11.3 0.00 0.00 0.00 35 1006.9
20260503220116 13 270 11.3 14.5 0.00 0.00 0.00 34 1006.8
20260503215657 13 293 11.3 19.3 0.00 0.00 0.00 34 1006.8
20260503215117 13 248 8.0 14.5 0.00 0.00 0.00 33 1006.8
20260503214617 13 270 11.3 16.1 0.00 0.00 0.00 35 1006.8
20260503214116 13 248 8.0 11.3 0.00 0.00 0.00 34 1006.8
20260503213616 13 293 9.7 14.5 0.00 0.00 0.00 34 1006.9
20260503213117 12 225 6.4 11.3 0.00 0.00 0.00 35 1006.9
20260503212616 12 293 14.5 25.7 0.00 0.00 0.00 35 1006.9
20260503212116 12 315 11.3 16.1 0.00 0.00 0.00 35 1006.9
20260503211616 12 270 11.3 17.7 0.00 0.00 0.00 37 1006.8
20260503211117 12 248 8.0 27.4 0.00 0.00 0.00 38 1006.8
20260503210616 12 270 9.7 14.5 0.00 0.00 0.00 39 1006.8
20260503210257 12 270 6.4 9.7 0.00 0.00 0.00 38 1006.9
20260503205616 12 293 9.7 17.7 0.00 0.00 0.00 38 1006.8
20260503205116 12 270 11.3 19.3 0.00 0.00 0.00 38 1006.9
20260503204616 12 248 9.7 16.1 0.00 0.00 0.00 37 1006.9
20260503204116 12 293 4.8 11.3 0.00 0.00 0.00 38 1006.9
20260503203616 12 248 17.7 25.7 0.00 0.00 0.00 38 1006.9
20260503203117 12 270 6.4 12.9 0.00 0.00 0.00 38 1006.9
20260503202616 12 270 14.5 24.1 0.00 0.00 0.00 37 1007.0
20260503202117 12 293 12.9 17.7 0.00 0.00 0.00 37 1007.1
20260503201637 12 248 9.7 16.1 0.00 0.00 0.00 39 1007.1
20260503201117 11 248 8.0 12.9 0.00 0.00 0.00 38 1007.2
20260503200617 11 270 9.7 16.1 0.00 0.00 0.00 39 1007.2
20260503200116 11 293 9.7 19.3 0.00 0.00 0.00 39 1007.3
20260503195616 11 248 11.3 16.1 0.00 0.00 0.00 39 1007.3
20260503195116 12 248 12.9 19.3 0.00 0.00 0.00 39 1007.4
20260503194616 12 225 6.4 14.5 0.00 0.00 0.00 40 1007.4
20260503194116 12 248 11.3 17.7 0.00 0.00 0.00 40 1007.6
20260503193616 12 225 11.3 24.1 0.00 0.00 0.00 40 1007.6
20260503193116 11 270 8.0 14.5 0.00 0.00 0.00 40 1007.7
20260503192616 11 293 4.8 11.3 0.00 0.00 0.00 38 1007.8
20260503192116 12 225 16.1 22.5 0.00 0.00 0.00 39 1007.8
20260503191616 11 293 8.0 11.3 0.00 0.00 0.00 41 1007.9
20260503191116 11 248 9.7 12.9 0.00 0.00 0.00 40 1007.9
20260503190636 11 248 9.7 16.1 0.00 0.00 0.00 41 1007.9
20260503190116 11 270 12.9 19.3 0.00 0.00 0.00 40 1007.9
20260503185637 11 293 4.8 8.0 0.00 0.00 0.00 41 1008.0
20260503185116 11 248 11.3 16.1 0.00 0.00 0.00 40 1008.1
20260503184636 11 248 9.7 17.7 0.00 0.00 0.00 41 1008.0
20260503184116 11 270 6.4 9.7 0.00 0.00 0.00 41 1008.1
20260503183616 11 248 11.3 20.9 0.00 0.00 0.00 41 1008.2
20260503183116 11 248 6.4 12.9 0.00 0.00 0.00 41 1008.3
20260503182616 11 293 8.0 16.1 0.00 0.00 0.00 41 1008.4
20260503182116 11 270 14.5 24.1 0.00 0.00 0.00 41 1008.5
20260503181616 11 293 6.4 11.3 0.00 0.00 0.00 44 1008.4
20260503181116 10 315 3.2 4.8 0.00 0.00 0.00 44 1008.5
20260503180616 10 270 6.4 12.9 0.00 0.00 0.00 44 1008.6
20260503180116 10 293 4.8 11.3 0.00 0.00 0.00 44 1008.6
20260503175616 10 270 3.2 6.4 0.00 0.00 0.00 43 1008.7
20260503175116 11 338 9.7 16.1 0.00 0.00 0.00 45 1008.7
20260503174616 10 248 8.0 12.9 0.00 0.00 0.00 46 1008.8
20260503174136 10 315 4.8 11.3 0.00 0.03 0.00 47 1008.8
20260503173616 10 270 6.4 9.7 0.00 0.08 0.00 48 1008.9
20260503173136 10 270 6.4 11.3 0.00 0.15 0.00 48 1009.0
20260503172616 10 270 11.3 16.1 0.00 0.20 0.00 48 1009.0
20260503172116 10 248 9.7 14.5 0.00 0.20 0.00 48 1009.0
20260503171616 10 270 8.0 14.5 0.00 0.20 0.00 50 1009.2
20260503171116 10 270 6.4 9.7 0.00 0.20 0.00 49 1009.2
20260503170616 10 248 16.1 22.5 0.00 0.20 0.00 48 1009.3
20260503170116 10 248 8.0 12.9 0.00 0.20 0.00 49 1009.3
20260503160116 10 270 9.7 16.1 0.00 0.20 0.00 50 1010.2
20260503150618 9 203 3.2 4.8 0.00 0.20 0.00 48 1010.8
20260503150158 9 225 8.0 12.9 0.00 0.20 0.00 49 1010.8
20260503140117 8 270 3.2 6.4 0.00 0.20 0.00 56 1011.4
20260503131118 7 270 1.6 3.2 0.00 0.20 0.00 67 1011.9
20260503130617 6 315 1.6 3.2 0.00 0.20 0.00 68 1011.8
20260503130117 6 270 3.2 4.8 0.00 0.20 0.00 68 1011.8
20260503120158 5 0.0 0.0 0.00 0.25 0.00 74 1011.8
20260503110617 4 338 1.6 4.8 0.00 0.33 0.00 78 1011.6
20260503110117 4 338 1.6 3.2 0.00 0.33 0.00 78 1011.5
20260503100116 4 338 1.6 3.2 0.00 0.41 0.00 83 1011.3
20260503090116 4 270 1.6 3.2 0.00 0.43 0.00 85 1011.5
20260503081636 4 293 1.6 1.6 0.00 0.46 0.00 84 1011.6
20260503081117 4 293 1.6 3.2 0.00 0.46 0.00 84 1011.6
20260503080637 4 293 1.6 3.2 0.00 0.46 0.00 84 1011.6
20260503080116 4 293 1.6 3.2 0.00 0.46 0.00 83 1011.6